Hourly Data Report for October 14, 2014

All times are specified in Local Standard Time (LST). Add 1 hour to adjust for Daylight Saving Time where and when it is observed.

MONCTON INTL A
NEW BRUNSWICK

46°06'44.000" N
64°40'43.000" W
70.70 m
8103201
71705
YQM

Download Data

Hourly Data (October 2014)
Hourly Data Report for October 14, 2014
Temp Definition
°C
Dew Point Temp Definition
°C
Rel Hum Definition
%
Wind Dir Definition
10's deg

Wind Spd Definition
km/h
Visibility Definition
km
Stn Press Definition
kPa
Hmdx Definition


Wind Chill Definition


Weather Definition


TIME
00:00 Legend Double Dagger 7.5 5.3 86 22 18 24.1 101.41     LegendNANA
01:00 Legend Double Dagger 5.9 4.6 91 21 12 24.1 101.41     LegendNANA
02:00 Legend Double Dagger 7.1 6.1 93 19 9 24.1 101.39     Clear
03:00 Legend Double Dagger 5.6 4.9 95 21 11 24.1 101.40     LegendNANA
04:00 Legend Double Dagger 6.0 5.4 96 21 12 24.1 101.39     LegendNANA
05:00 Legend Double Dagger 5.4 4.8 96 20 13 24.1 101.41     Clear
06:00 Legend Double Dagger 5.2 4.6 96 22 14 0.6 101.41     Fog
07:00 Legend Double Dagger 5.7 5.3 97 21 13 0.6 101.41     Fog
08:00 Legend Double Dagger 7.5 7.1 97 24 16 1.0 101.43     Fog
09:00 Legend Double Dagger 10.1 9.5 96 23 18 6.4 101.41     Fog
10:00 Legend Double Dagger 13.6 10.4 81 24 19 24.1 101.40     LegendNANA
11:00 Legend Double Dagger 15.4 10.2 71 25 19 24.1 101.36     Mainly Clear
12:00 Legend Double Dagger 17.7 10.7 63 24 22 24.1 101.29     LegendNANA
13:00 Legend Double Dagger 19.0 10.9 59 23 12 24.1 101.22     LegendNANA
14:00 Legend Double Dagger 20.6 11.9 57 25 15 24.1 101.16     Mostly Cloudy
15:00 Legend Double Dagger 21.0 13.3 61 24 27 24.1 101.10     LegendNANA
16:00 Legend Double Dagger 18.4 13.1 71 22 31 24.1 101.07     LegendNANA
17:00 Legend Double Dagger 17.1 13.5 79 21 19 24.1 101.09     Mostly Cloudy
18:00 Legend Double Dagger 16.4 13.5 83 21 25 24.1 101.02     LegendNANA
19:00 Legend Double Dagger 16.4 13.7 84 21 26 24.1 101.00     LegendNANA
20:00 Legend Double Dagger 16.8 14.5 86 22 20 24.1 100.98     Cloudy
21:00 Legend Double Dagger 16.5 14.0 85 23 34 24.1 100.98     LegendNANA
22:00 Legend Double Dagger 16.2 14.1 87 23 21 24.1 100.99     LegendNANA
23:00 Legend Double Dagger 16.7 14.7 88 23 26 24.1 100.92     Cloudy

Notes on Data Quality.

Legend

  • E = Estimated
  • M = Missing
  • NA = Not Available
  • ‡ = Partner data that is not subject to review by the National Climate Archives
Date modified: